DAL3997 KSEA-KPDX

Flight info

Callsign DAL3997
Flight time 0h 34m
Altitude 13000
Route SEA1 SEA BUWZO KRATR3
Aircraft A321/M-SDE3FGHIRWY/LB1

Departure

Time 2026-05-06 22:50
Airport Seattle–Tacoma International Airport (KSEA)

Arrival

Time 2026-05-06 23:24
Airport Portland International Airport (KPDX)
Time Latitude Longitude Altitude Speed Heading
2026-05-06 22:18 47.44255 -122.30459 394 ft 0 kts 130°
2026-05-06 22:39 47.44264 -122.30476 394 ft 4 kts 126°
2026-05-06 22:39 47.44277 -122.30510 394 ft 4 kts 104°
2026-05-06 22:40 47.44278 -122.30538 394 ft 4 kts 32°
2026-05-06 22:40 47.44280 -122.30543 394 ft 4 kts
2026-05-06 22:40 47.44291 -122.30542 394 ft 0 kts
2026-05-06 22:43 47.44293 -122.30542 394 ft 1 kts
2026-05-06 22:43 47.44314 -122.30542 394 ft 5 kts
2026-05-06 22:43 47.44344 -122.30568 394 ft 6 kts 294°
2026-05-06 22:44 47.44369 -122.30629 394 ft 8 kts 336°
2026-05-06 22:44 47.44431 -122.30632 394 ft 10 kts 359°
2026-05-06 22:44 47.44509 -122.30632 394 ft 12 kts
2026-05-06 22:44 47.44593 -122.30631 394 ft 11 kts
2026-05-06 22:45 47.44667 -122.30630 394 ft 10 kts
2026-05-06 22:45 47.44733 -122.30630 394 ft 10 kts 360°
2026-05-06 22:45 47.44812 -122.30630 394 ft 13 kts
2026-05-06 22:45 47.44909 -122.30629 394 ft 15 kts
2026-05-06 22:46 47.45024 -122.30628 394 ft 18 kts 360°
2026-05-06 22:46 47.45150 -122.30628 394 ft 18 kts
2026-05-06 22:46 47.45266 -122.30628 394 ft 16 kts
2026-05-06 22:46 47.45373 -122.30626 394 ft 15 kts
2026-05-06 22:47 47.45469 -122.30623 394 ft 13 kts 360°
2026-05-06 22:47 47.45555 -122.30622 391 ft 11 kts
2026-05-06 22:47 47.45652 -122.30622 394 ft 18 kts
2026-05-06 22:47 47.45797 -122.30621 394 ft 21 kts
2026-05-06 22:48 47.45936 -122.30619 394 ft 20 kts
2026-05-06 22:48 47.46068 -122.30618 393 ft 18 kts
2026-05-06 22:48 47.46189 -122.30617 390 ft 17 kts
2026-05-06 22:48 47.46283 -122.30651 394 ft 13 kts 294°
2026-05-06 22:49 47.46265 -122.30763 389 ft 11 kts 219°
2026-05-06 22:49 47.46175 -122.30779 392 ft 22 kts 180°
2026-05-06 22:49 47.45765 -122.30788 391 ft 92 kts 181°
2026-05-06 22:49 47.44934 -122.30792 393 ft 144 kts 180°
2026-05-06 22:50 47.43841 -122.30807 718 ft 158 kts 180°
2026-05-06 22:50 47.42736 -122.30817 1351 ft 159 kts 181°
2026-05-06 22:50 47.41636 -122.30765 1966 ft 162 kts 180°
2026-05-06 22:50 47.40443 -122.30695 2229 ft 183 kts 179°
2026-05-06 22:51 47.39096 -122.30605 2421 ft 204 kts 179°
2026-05-06 22:51 47.37589 -122.30510 2589 ft 230 kts 180°
2026-05-06 22:51 47.35916 -122.30418 3020 ft 247 kts 180°
2026-05-06 22:51 47.34176 -122.30351 3782 ft 251 kts 181°
2026-05-06 22:52 47.32414 -122.30353 4564 ft 255 kts 182°
2026-05-06 22:52 47.30615 -122.30386 5283 ft 261 kts 183°
2026-05-06 22:52 47.28773 -122.30430 5944 ft 268 kts 184°
2026-05-06 22:52 47.26887 -122.30478 6593 ft 275 kts 185°
2026-05-06 22:53 47.24978 -122.30521 7242 ft 280 kts 185°
2026-05-06 22:53 47.23007 -122.30559 7954 ft 284 kts 185°
2026-05-06 22:53 47.21021 -122.30592 8672 ft 287 kts 185°
2026-05-06 22:53 47.19012 -122.30621 9375 ft 291 kts 185°
2026-05-06 22:54 47.16975 -122.30647 10070 ft 294 kts 185°
2026-05-06 22:54 47.14860 -122.30681 10328 ft 314 kts 185°
2026-05-06 22:54 47.12590 -122.30724 10453 ft 337 kts 185°
2026-05-06 22:54 47.10191 -122.30765 10723 ft 352 kts 185°
2026-05-06 22:55 47.07716 -122.30801 11272 ft 357 kts 185°
2026-05-06 22:55 47.05211 -122.30831 11891 ft 361 kts 185°
2026-05-06 22:55 47.02680 -122.30861 12513 ft 365 kts 185°
2026-05-06 22:55 47.00122 -122.30896 12895 ft 368 kts 185°
2026-05-06 22:56 46.97544 -122.30931 12991 ft 373 kts 185°
2026-05-06 22:56 46.94926 -122.30970 12997 ft 378 kts 185°
2026-05-06 22:56 46.92322 -122.30990 12996 ft 372 kts 185°
2026-05-06 22:56 46.89712 -122.31000 12984 ft 377 kts 184°
2026-05-06 22:57 46.87077 -122.31008 12982 ft 378 kts 184°
2026-05-06 22:57 46.85333 -122.31010 12978 ft 379 kts 184°
2026-05-06 22:57 46.82697 -122.31006 12983 ft 379 kts 184°
2026-05-06 22:57 46.80065 -122.30998 12971 ft 378 kts 184°
2026-05-06 22:58 46.77428 -122.30991 12971 ft 379 kts 184°
2026-05-06 22:58 46.74785 -122.30989 12968 ft 380 kts 185°
2026-05-06 22:58 46.72141 -122.30992 12965 ft 379 kts 184°
2026-05-06 22:58 46.69497 -122.30992 12964 ft 379 kts 184°
2026-05-06 22:59 46.66855 -122.30989 12973 ft 380 kts 184°
2026-05-06 22:59 46.64200 -122.30988 12970 ft 380 kts 184°
2026-05-06 22:59 46.61578 -122.30985 12967 ft 381 kts 184°
2026-05-06 22:59 46.58931 -122.30984 12962 ft 381 kts 184°
2026-05-06 23:00 46.56283 -122.30983 12951 ft 380 kts 184°
2026-05-06 23:00 46.53627 -122.30983 12952 ft 380 kts 184°
2026-05-06 23:00 46.50987 -122.30984 12947 ft 379 kts 184°
2026-05-06 23:00 46.48348 -122.30983 12946 ft 379 kts 184°
2026-05-06 23:01 46.45693 -122.30980 12946 ft 379 kts 184°
2026-05-06 23:01 46.43060 -122.30975 12942 ft 379 kts 184°
2026-05-06 23:01 46.40418 -122.30972 12942 ft 378 kts 184°
2026-05-06 23:01 46.37789 -122.30971 12946 ft 378 kts 184°
2026-05-06 23:02 46.35152 -122.30969 12951 ft 379 kts 184°
2026-05-06 23:02 46.32516 -122.30965 12951 ft 379 kts 184°
2026-05-06 23:02 46.29879 -122.30965 12949 ft 379 kts 184°
2026-05-06 23:02 46.27249 -122.31015 12946 ft 377 kts 188°
2026-05-06 23:03 46.24681 -122.31634 12937 ft 372 kts 200°
2026-05-06 23:03 46.22257 -122.32870 12945 ft 368 kts 206°
2026-05-06 23:03 46.19893 -122.34200 12948 ft 367 kts 205°
2026-05-06 23:03 46.17493 -122.35542 13003 ft 366 kts 205°
2026-05-06 23:04 46.15149 -122.36842 12852 ft 356 kts 205°
2026-05-06 23:04 46.12877 -122.38100 12428 ft 351 kts 205°
2026-05-06 23:04 46.10637 -122.39340 12295 ft 337 kts 205°
2026-05-06 23:04 46.08517 -122.40508 12061 ft 317 kts 205°
2026-05-06 23:05 46.06504 -122.41600 11663 ft 302 kts 205°
2026-05-06 23:05 46.04554 -122.42654 11010 ft 296 kts 205°
2026-05-06 23:05 46.02635 -122.43690 10312 ft 293 kts 205°
2026-05-06 23:05 46.00745 -122.44708 9737 ft 288 kts 205°
2026-05-06 23:06 45.98850 -122.45730 9241 ft 292 kts 205°
2026-05-06 23:06 45.96982 -122.46742 8882 ft 289 kts 205°
2026-05-06 23:06 45.95078 -122.47771 8487 ft 288 kts 204°
2026-05-06 23:06 45.93128 -122.48427 8090 ft 289 kts 189°
2026-05-06 23:07 45.91110 -122.48365 7531 ft 292 kts 174°
2026-05-06 23:07 45.89113 -122.47851 7000 ft 291 kts 173°
2026-05-06 23:07 45.87153 -122.47352 6460 ft 289 kts 173°
2026-05-06 23:07 45.85208 -122.46861 6333 ft 270 kts 173°
2026-05-06 23:08 45.83410 -122.46408 6230 ft 258 kts 173°
2026-05-06 23:08 45.81705 -122.45982 6131 ft 244 kts 173°
2026-05-06 23:08 45.80064 -122.45574 6027 ft 236 kts 173°
2026-05-06 23:08 45.78459 -122.45177 6006 ft 233 kts 173°
2026-05-06 23:09 45.76866 -122.44786 6010 ft 232 kts 173°
2026-05-06 23:09 45.75294 -122.44398 6004 ft 229 kts 173°
2026-05-06 23:09 45.73740 -122.44010 6010 ft 225 kts 173°
2026-05-06 23:09 45.72194 -122.43626 6009 ft 225 kts 174°
2026-05-06 23:10 45.70648 -122.43246 6005 ft 225 kts 174°
2026-05-06 23:10 45.69096 -122.42866 5998 ft 226 kts 174°
2026-05-06 23:10 45.67611 -122.42143 6002 ft 230 kts 147°
2026-05-06 23:10 45.66584 -122.40391 6007 ft 234 kts 112°
2026-05-06 23:11 45.66371 -122.38140 6006 ft 233 kts 78°
2026-05-06 23:11 45.67026 -122.36052 6007 ft 228 kts 50°
2026-05-06 23:11 45.68050 -122.34309 6009 ft 229 kts 45°
2026-05-06 23:11 45.69113 -122.32622 5996 ft 228 kts 45°
2026-05-06 23:12 45.70178 -122.30934 5998 ft 228 kts 44°
2026-05-06 23:12 45.71237 -122.29239 5998 ft 228 kts 48°
2026-05-06 23:12 45.72311 -122.27577 6002 ft 228 kts 30°
2026-05-06 23:12 45.73866 -122.26830 5997 ft 243 kts 357°
2026-05-06 23:13 45.75487 -122.27356 6010 ft 240 kts 327°
2026-05-06 23:13 45.76663 -122.28988 6013 ft 237 kts 300°
2026-05-06 23:13 45.77431 -122.31019 5997 ft 226 kts 295°
2026-05-06 23:13 45.78036 -122.32989 5998 ft 211 kts 282°
2026-05-06 23:14 45.77930 -122.35042 5975 ft 223 kts 243°
2026-05-06 23:14 45.76749 -122.36699 5992 ft 256 kts 210°
2026-05-06 23:14 45.75033 -122.37516 6001 ft 263 kts 196°
2026-05-06 23:14 45.73243 -122.38074 6001 ft 263 kts 194°
2026-05-06 23:15 45.71439 -122.38603 6003 ft 264 kts 195°
2026-05-06 23:15 45.69641 -122.39122 5819 ft 262 kts 194°
2026-05-06 23:15 45.67864 -122.39643 5538 ft 258 kts 194°
2026-05-06 23:15 45.66112 -122.40164 5235 ft 255 kts 194°
2026-05-06 23:16 45.64401 -122.40622 5002 ft 251 kts 185°
2026-05-06 23:16 45.62704 -122.40161 4740 ft 250 kts 154°
2026-05-06 23:16 45.61397 -122.38541 4404 ft 251 kts 122°
2026-05-06 23:16 45.60724 -122.36233 4067 ft 253 kts 107°
2026-05-06 23:17 45.60274 -122.33819 4004 ft 253 kts 105°
2026-05-06 23:17 45.59852 -122.31372 3998 ft 254 kts 104°
2026-05-06 23:17 45.59433 -122.28909 4000 ft 253 kts 104°
2026-05-06 23:17 45.59013 -122.26468 3998 ft 253 kts 106°
2026-05-06 23:18 45.58243 -122.24250 4001 ft 250 kts 135°
2026-05-06 23:18 45.56791 -122.22882 4001 ft 244 kts 166°
2026-05-06 23:18 45.55170 -122.22785 4001 ft 238 kts 196°
2026-05-06 23:18 45.53615 -122.23503 4003 ft 238 kts 202°
2026-05-06 23:19 45.52052 -122.24393 4002 ft 239 kts 205°
2026-05-06 23:19 45.50517 -122.25291 4001 ft 238 kts 205°
2026-05-06 23:19 45.49035 -122.26288 3995 ft 236 kts 219°
2026-05-06 23:19 45.48025 -122.28085 4001 ft 233 kts 250°
2026-05-06 23:20 45.47729 -122.30311 3993 ft 232 kts 275°
2026-05-06 23:20 45.48337 -122.32417 3869 ft 235 kts 311°
2026-05-06 23:20 45.49522 -122.34078 3598 ft 235 kts 308°
2026-05-06 23:20 45.50342 -122.36038 3306 ft 232 kts 296°
2026-05-06 23:21 45.51085 -122.38077 3001 ft 232 kts 297°
2026-05-06 23:21 45.51866 -122.40104 2688 ft 232 kts 298°
2026-05-06 23:21 45.52645 -122.42091 2379 ft 232 kts 299°
2026-05-06 23:21 45.53416 -122.44053 2067 ft 221 kts 298°
2026-05-06 23:22 45.54162 -122.45953 1794 ft 212 kts 298°
2026-05-06 23:22 45.54865 -122.47749 1482 ft 204 kts 299°
2026-05-06 23:22 45.55544 -122.49484 1225 ft 191 kts 299°
2026-05-06 23:22 45.56149 -122.51029 1005 ft 169 kts 299°
2026-05-06 23:23 45.56694 -122.52424 766 ft 154 kts 300°
2026-05-06 23:23 45.57202 -122.53722 526 ft 146 kts 300°
2026-05-06 23:23 45.57683 -122.54978 331 ft 145 kts 300°
2026-05-06 23:23 45.58171 -122.56222 167 ft 142 kts 300°
2026-05-06 23:24 45.58639 -122.57429 39 ft 136 kts 300°
2026-05-06 23:24 45.59006 -122.58365 32 ft 57 kts 299°
2026-05-06 23:24 45.59154 -122.58743 36 ft 38 kts 294°
2026-05-06 23:24 45.59207 -122.59019 37 ft 19 kts 283°
2026-05-06 23:25 45.59212 -122.59076 38 ft 0 kts 270°
2026-05-06 23:25 45.59212 -122.59089 38 ft 5 kts 270°
2026-05-06 23:26 45.59220 -122.59193 36 ft 16 kts 283°
2026-05-06 23:26 45.59285 -122.59389 31 ft 26 kts 299°
2026-05-06 23:26 45.59359 -122.59574 28 ft 16 kts 301°
2026-05-06 23:26 45.59319 -122.59655 28 ft 11 kts 160°
2026-05-06 23:27 45.59279 -122.59579 29 ft 8 kts 120°
2026-05-06 23:27 45.59247 -122.59532 30 ft 5 kts 168°
2026-05-06 23:27 45.59220 -122.59541 30 ft 4 kts 202°
2026-05-06 23:27 45.59199 -122.59575 31 ft 6 kts 241°
2026-05-06 23:28 45.59192 -122.59593 31 ft 0 kts 240°
2026-05-06 23:28 45.59190 -122.59599 31 ft 1 kts 240°
2026-05-06 23:28 45.59189 -122.59600 31 ft 0 kts 240°